Location: Tomaszow Mazowiecki
(51.5330°N, 20.0170°E)
Time: 11:28:01
(UTC+01:00)

ISS - Visible Passes

Search period start: 05 March 2024 00:00
Search period end: 15 March 2024 00:00
Orbit: 414 x 422 km, 51.6° (Epoch: 05 March)

Date Brightness Start Highest point End Pass type
(mag) Time Alt. Az. Time Alt. Az. Time Alt. Az.
05 Mar -2.1 03:50:49 28° SE 03:50:49 28° SE 03:52:37 10° ESE visible
05 Mar -1.9 05:23:46 12° WSW 05:25:34 17° SW 05:27:49 10° S visible
06 Mar -2.4 04:37:55 23° SSW 04:37:55 23° SSW 04:40:28 10° SSE visible
07 Mar -1.3 03:52:09 14° SSE 03:52:09 14° SSE 03:52:50 10° SE visible
14 Mar -1.7 19:44:43 10° SSW 19:45:56 18° SSW 19:45:56 18° SSW visible
